Terminal Aerodrome Forecast
Issued by NWS Atlanta, GA

Home | Current Version | Previous Version | Text Only | Print | Product List | Glossary On
Versions: 1 2 3 4 5 6 7 8 9 10 11 12 13 14 15 16 17 18 19 20 21 22 23 24 25 26 27 28 29 30 31 32 33 34 35 36 37 38 39 40
000
FTUS42 KFFC 301100
TAFATL
TAF
KATL 301121Z 3012/0118 06005KT P6SM BKN015
      TEMPO 3012/3013 BKN008
     FM301400 04004KT P6SM SCT010
     FM301800 02004KT P6SM FEW040
     FM302200 03003KT P6SM FEW100
     FM010400 VRB02KT P6SM FEW250
     FM011500 17003KT P6SM FEW040=

USA.gov is the U.S. government's official web portal to all federal, state and local government web resources and services.